Location: Newark
(46.9000°N, 28.3500°E)
Time: 22:13:26
(UTC+00:00)

Transit 2A Rocket - Visible Passes

Search period start: 24 August 2019 00:00
Search period end: 03 September 2019 00:00
Orbit: 590 x 913 km, 66.7° (Epoch: 24 August)

Date Brightness Start Highest point End Pass type
(mag) Time Alt. Az. Time Alt. Az. Time Alt. Az.
24 Aug 7.0 00:15:42 10° NNW 00:19:30 23° NE 00:23:05 10° E visible
24 Aug 4.6 01:57:56 10° NW 02:02:27 58° WSW 02:06:41 10° SSE visible
24 Aug 7.1 18:17:26 10° WSW 18:22:22 31° NW 18:26:57 10° NNE visible
24 Aug 8.3 20:05:55 10° NNW 20:06:35 10° NNW 20:07:13 10° NNW visible
24 Aug 7.5 23:33:33 10° N 23:36:35 17° NNE 23:39:28 10° ENE visible
25 Aug 4.6 01:15:20 10° NNW 01:19:58 81° NE 01:24:19 10° SE visible
25 Aug 6.4 17:34:13 10° WSW 17:39:38 45° NW 17:44:38 10° NNE visible
25 Aug 8.0 19:20:56 10° NW 19:23:28 13° NNW 19:25:54 10° N visible
25 Aug 7.8 22:51:38 10° N 22:53:33 12° NNE 22:55:25 10° NE visible
26 Aug 5.5 00:32:53 10° NNW 00:37:23 47° NE 00:41:36 10° SE visible
26 Aug 5.7 02:16:06 10° WNW 02:19:34 22° WSW 02:22:54 10° SSW visible
26 Aug 7.8 18:36:49 10° WNW 18:40:27 18° NW 18:43:53 10° N visible
26 Aug 6.4 23:50:32 10° NNW 23:54:40 30° NE 23:58:33 10° ESE visible
27 Aug 4.9 01:33:04 10° NW 01:37:18 39° WSW 01:41:19 10° S visible
27 Aug 7.5 17:53:04 10° W 17:57:33 24° NW 18:01:44 10° NNE visible
27 Aug 7.1 23:08:18 10° NNW 23:11:49 20° NE 23:15:10 10° E visible
28 Aug 4.4 00:50:21 10° NW 00:54:55 71° WSW 00:55:01 70° SW visible
28 Aug 8.0 18:57:25 10° NW 18:58:49 11° NNW 19:00:12 10° N visible
28 Aug 7.5 22:26:13 10° N 22:28:51 15° NNE 22:31:25 10° ENE visible
29 Aug 5.2 00:07:48 10° NNW 00:11:32 52° N 00:11:32 52° N visible
29 Aug 7.8 18:12:52 10° WNW 18:15:44 14° NNW 18:18:30 10° N visible
29 Aug 7.7 21:44:32 10° N 21:45:48 11° NNE 21:47:03 10° NE visible
29 Aug 6.1 23:25:24 10° NNW 23:28:44 34° NNE 23:28:44 34° NNE visible
30 Aug 7.0 01:08:21 10° NW 01:08:33 11° NW 01:08:33 11° NW visible
30 Aug 7.6 17:28:53 10° W 17:32:46 20° NW 17:36:27 10° N visible
30 Aug 6.7 22:43:06 10° NNW 22:46:17 25° NNE 22:46:17 25° NNE visible
31 Aug 6.9 00:25:27 10° NW 00:26:07 14° NW 00:26:07 14° NW visible
31 Aug 7.1 22:00:55 10° N 22:04:02 18° NNE 22:04:02 18° NNE visible
31 Aug 6.9 23:42:47 10° NW 23:43:53 17° NW 23:43:53 17° NW visible
01 Sep 7.8 17:49:10 10° NW 17:51:05 12° NNW 17:52:56 10° N visible
01 Sep 7.3 21:18:56 10° N 21:21:08 13° NNE 21:21:55 13° NE visible
01 Sep 6.9 23:00:18 10° NNW 23:01:46 19° NNW 23:01:46 19° NNW visible
02 Sep 7.0 22:17:56 10° NNW 22:19:46 21° N 22:19:46 21° N visible
